Regional Weather Roundup
Issued by NWS New Orleans/Baton Rouge, LA

Home | Current Version | Previous Version | Text Only | Print | Product List | Glossary On
Versions: 1 2 3 4 5 6 7 8 9 10 11 12 13 14 15 16 17 18 19 20 21 22 23 24 25 26 27 28
000
ASUS44 KLIX 080913
RWRLIX
NEW ORLEANS REGIONAL WEATHER ROUNDUP
NATIONAL WEATHER SERVICE NEW ORLEANS LA
300 AM CST THU DEC 08 2016

NOTE: "FAIR" INDICATES FEW OR NO CLOUDS BELOW 12,000 FEET WITH NO
      SIGNIFICANT WEATHER AND/OR OBSTRUCTIONS TO VISIBILITY.
      SKY/WX - SKY CONDITION AND SIGNIFICANT WEATHER.
      TMP - AIR TEMPERATURE.     DP    - DEWPOINT TEMPERATURE.
      RH  - RELATIVE HUMIDITY.   PRES  - PRESSURE.
      HI  - HEAT INDEX.          WCI   - WIND CHILL INDEX.

*  THESE STATIONS ARE NOT NWS OR FAA STATIONS AND ARE NOT UNDER
   NWS QUALITY CONTROL.

LAZ038-040-048-061>063-065>067-069-081000-
SOUTHEAST LOUISIANA

CITY           SKY/WX    TMP DP  RH WIND       PRES   REMARKS
N.O. AUDUBON   NOT AVBL
N.O. INTL ARPT CLOUDY    57  56  96 N3        30.17R
N.O. LAKEFRONT MOCLDY    58  55  90 NE9       30.17R
N.O. DOWNTOWN*   N/A     57  54  89 N3        30.17R
RESERVE*       CLOUDY    58  56  94 N5        30.17S
SLIDELL        MOCLDY    54  52  93 N5        30.17R
BATON ROUGE    CLOUDY    53  50  89 N9        30.20R
BOOTHVILLE     CLOUDY    58  58 100 N8        30.16S
BELLE CHASSE   CLEAR     57  54  89 NE6       30.14F
BOGALUSA*        N/A     49  47  91 N6        30.22R
GALLIANO*      MOSUNNY   59  55  88 E8        30.13F
NEW ROADS*     CLOUDY    51  49  95 N3        30.21F
GONZALES*      CLOUDY    55  53  94 N6        30.17F
HAMMOND*       MOCLDY    50  48  93 CALM      30.20R
HOUMA*         PTCLDY    55  55  97 N7        30.15R FOG
PORT FOURCHON* MOSUNNY   61  57  88 NE12      30.14F

$$

MSZ070-080>082-081000-
SOUTHERN MISSISSIPPI

CITY           SKY/WX    TMP DP  RH WIND       PRES   REMARKS
MCCOMB         CLOUDY    49  45  86 N7        30.22R
GULFPORT       PTCLDY    55  51  86 E7        30.16F
BILOXI         MOCLDY    55  53  93 E10       30.16F
PASCAGOULA     MOCLDY    53  47  79 NE3       30.18F

$$

COASTAL OBSERVATIONS
LAKE AND NEARSHORE STATIONS

STATION/POSITION TIME  TEMP    WIND        PRES    WAVE
                       AIR SEA DIR/SP/G            HT/PER
                 (UTC) (F)     (DEG/KT/KT) (MB)    (FT/S)
PASCAGOULA       0848   54      40/  7/ 10 1021.5
WAVELAND YACHT   0848   57 62   70/  9/ 12 1021.1
GRAND ISLE       0848   61 67   60/ 10/ 14 1020.8
SOUTHWEST PASS   0848           30/ 15/ 17   N/A
NEW CANAL        0848   58 62   60/  8/  9 1020.6
SHELL BEACH      0848   59 63   90/ 13/ 15 1020.2

OFFSHORE STATIONS

STATION/POSITION TIME  TEMP    WIND        PRES    WAVE
                       AIR SEA DIR/SP/G            HT/PER
                 (UTC) (F)     (DEG/KT/KT) (MB)    (FT/S)
64 S DAUPHIN ISL 0850   67 75   10/ 10/ 14 1021.0    1/ 6

$$





USA.gov is the U.S. government's official web portal to all federal, state and local government web resources and services.